Location: Kingsnorth
(51.1000°N, 0.8500°E)
Time: 20:44:10
(UTC+00:00)

Daily predictions for brighter satellites

Satellite Brightness Start Highest point End
(mag) Time Altitude Azimuth Time Altitude Azimuth Time Altitude Azimuth
Cosmos 1943 Rocket 3.5 19:04:54 10° NW 19:10:06 42° WSW 19:15:19 10° S
STARLINK-1202 3.9 19:06:12 10° W 19:10:20 66° N 19:14:28 10° E
NOSS 3-4 (A) 3.9 19:04:49 10° NW 19:11:41 79° NE 19:19:18 10° SE
Meteor 1-21 Rocket 4.4 19:06:10 10° NNW 19:11:44 82° W 19:17:17 10° S
NOSS 3-4 (C) 3.9 19:04:56 10° NW 19:11:47 78° NE 19:19:24 10° SE
Cosmos 1758 4.1 19:11:21 10° SSW 19:15:24 59° WNW 19:19:28 10° N
SL-4 R/B 2.3 19:15:44 10° SW 19:18:49 32° SSE 19:21:56 10° E
Cosmos 2369 Rocket 3.3 19:14:18 10° NW 19:19:45 47° WSW 19:25:07 10° S
STARLINK-1246 3.9 19:16:12 10° W 19:20:20 67° N 19:24:29 10° E
STARLINK-1203 3.9 19:16:50 10° WNW 19:21:02 69° N 19:25:14 10° E
STARLINK-1201 3.1 19:18:54 10° WNW 19:22:11 76° NNE 19:25:27 10° E
NOSS 3-3 (A) 4.0 19:16:42 10° SW 19:22:40 82° SE 19:29:28 10° NE
NOSS 3-3 (C) 4.0 19:16:48 10° SW 19:22:46 81° SE 19:29:35 10° NE
MOS 1 4.3 19:17:59 10° SSE 19:23:39 84° ENE 19:29:22 10° NNW
Cosmos 1340 Rocket 3.9 19:20:53 10° SSE 19:24:13 25° E 19:27:34 10° NE
CZ-2C R/B 4.4 19:20:12 10° NNE 19:24:29 33° E 19:28:41 10° SSE
Cosmos 1703 3.3 19:20:35 10° N 19:24:31 61° ENE 19:28:27 10° SSE
STARLINK-67 2.6 19:22:16 10° WNW 19:24:49 62° SSW 19:27:10 12° ESE
Cosmos 1328 3.9 19:21:11 10° N 19:25:11 60° ENE 19:29:08 10° SSE
STARLINK-1224 3.9 19:21:10 10° WNW 19:25:19 68° N 19:29:28 10° E
H-2A R/B 2.2 19:22:11 10° SSE 19:27:23 83° WSW 19:32:28 10° NNW
CZ-2C R/B 2.9 19:25:16 10° SSE 19:30:07 85° WSW 19:34:54 10° NNW
STARLINK-1225 3.8 19:26:10 10° WNW 19:30:19 69° N 19:34:27 10° E
Cosmos 1437 3.3 19:27:36 10° NNW 19:30:36 56° W 19:33:33 10° S
STARLINK-1230 3.8 19:31:10 10° WNW 19:35:19 70° N 19:39:14 11° E
Cosmos 2251 Rocket 4.1 19:31:46 10° SW 19:37:07 66° WNW 19:42:30 10° NNE
Cosmos 1908 3.4 19:34:02 10° S 19:37:48 52° E 19:41:36 10° NNE
SL-08 RB Rocket 3.7 19:33:33 10° SSE 19:38:07 79° ENE 19:42:46 10° NNW
STARLINK-1243 3.8 19:36:08 10° WNW 19:40:18 71° N 19:44:01 13° E
Resurs 1-3 3.8 19:37:54 10° SSE 19:42:11 55° ENE 19:46:30 10° N
USA 234 4.3 19:37:36 10° ENE 19:42:15 20° SE 19:46:51 10° S
SeaSat 1 3.1 19:38:47 10° NNE 19:43:40 60° NW 19:48:31 10° SW
ATLAS 2AS CENTAUR R/B 3.1 19:36:21 10° NW 19:44:02 74° SW 19:51:03 10° SSE
STARLINK-1228 2.8 19:42:03 10° WNW 19:44:57 66° SSW 19:46:55 18° ESE
STARLINK-1236 3.7 19:41:07 10° WNW 19:45:17 73° N 19:48:47 14° E
Cosmos 1943 3.3 19:41:58 10° SSW 19:47:39 84° WNW 19:53:24 10° NNE
Ariane Rocket 4.0 19:43:29 10° S 19:48:23 48° W 19:53:18 10° NNW
CZ-4C R/B 4.0 19:43:30 10° NW 19:49:13 32° NNE 19:55:50 10° ENE
Cosmos 1953 3.5 19:45:32 10° SSW 19:49:22 46° WNW 19:53:15 10° N
Cosmos 1140 Rocket 3.8 19:47:39 10° S 19:52:30 42° ESE 19:57:22 10° NE
Cosmos 1726 3.0 19:49:15 10° SSW 19:52:55 54° WNW 19:56:36 10° N
Cosmos 1656 Rocket 4.5 19:47:58 10° NW 19:53:27 52° WSW 19:58:50 10° S
Cosmos 2341 Rocket 4.2 19:47:26 10° N 19:53:44 55° ENE 19:59:56 10° SSE
STARLINK-1269 3.7 19:51:04 10° WNW 19:55:15 76° NNE 19:58:20 17° E
Meteor 1-11 4.3 19:51:49 10° NNW 19:57:38 87° W 20:03:20 10° S
Cosmos 1190 Rocket 4.1 19:53:45 10° S 19:58:54 55° ESE 20:04:04 10° NNE
Cosmos 2058 Rocket 3.1 19:55:18 10° S 19:59:43 60° E 20:04:11 10° NNE
DMSP B5D2-2 4.2 19:54:45 10° NNE 19:59:53 54° E 20:05:00 10° S
Cosmos 1697 Rocket 4.2 19:55:42 10° NNW 20:00:10 23° NE 20:04:03 12° E
STARLINK-1200 3.7 19:56:03 10° WNW 20:00:13 78° NNE 20:03:07 19° E
COSMOS 2455 2.9 19:54:13 10° NW 20:00:17 82° NE 20:05:11 16° SE
Spot 2 Rocket 4.2 19:56:54 17° ESE 20:00:21 38° ENE 20:05:03 10° N
CZ-2C R/B 2.8 19:55:31 10° NNE 20:00:31 47° E 20:05:31 10° S
MetOp-A 4.2 19:56:53 10° SSE 20:02:15 87° WSW 20:07:40 10° NNW
Cosmos 614 Rocket 3.9 19:59:36 10° SSW 20:04:49 82° ESE 20:10:04 10° NNE
STARLINK-1192 3.6 20:01:03 10° WNW 20:05:13 80° NNE 20:07:55 21° E
Cosmos 1726 Rocket 3.7 20:03:15 10° SSW 20:07:40 78° W 20:12:09 10° N
Cosmos 2218 Rocket 4.4 20:02:06 10° N 20:08:02 45° ENE 20:12:17 19° SE
ARGOS 4.1 20:03:35 10° S 20:08:46 47° W 20:13:59 10° NNW
STARLINK-1244 3.6 20:06:01 10° WNW 20:10:11 83° NNE 20:12:41 23° ESE
ERBS 2.7 20:07:22 10° NW 20:10:42 54° NNE 20:12:22 25° E
USA 186 4.1 20:08:19 10° SSW 20:11:02 24° W 20:13:42 10° NW
SL-24 R/B 3.8 20:07:33 10° NNE 20:11:46 89° ENE 20:15:33 10° SSW
Resurs 01 Rocket 1.5 20:08:30 15° SSE 20:12:08 77° ENE 20:16:35 10° NNW
ATLAS CENTAUR R/B 3.3 20:11:26 10° NNW 20:14:22 19° NNE 20:16:45 12° ENE
BREEZE-M DEB (TANK) 1.7 20:10:36 10° WSW 20:14:33 55° S 20:15:10 39° ESE
STARLINK-1138 3.6 20:11:00 10° WNW 20:15:11 85° NNE 20:17:28 26° ESE
Cosmos 921 Rocket 3.1 20:14:28 10° NNW 20:18:39 73° WSW 20:21:45 17° S
STARLINK-1234 3.5 20:15:47 10° WNW 20:18:43 43° SSW 20:19:38 32° SSE
STARLINK-1233 3.2 20:15:52 10° WNW 20:18:56 55° SSW 20:19:56 36° SSE
STARLINK-1212 3.2 20:16:19 10° WNW 20:19:24 54° SSW 20:20:22 36° SSE
STARLINK-1209 3.6 20:16:56 10° W 20:19:49 40° SSW 20:20:40 31° SSE
STARLINK-1105 3.2 20:16:46 10° WNW 20:19:51 54° SSW 20:20:48 36° SSE
STARLINK-1143 3.6 20:15:58 10° WNW 20:20:09 88° NNE 20:22:14 28° ESE
STARLINK-1206 3.2 20:17:15 10° WNW 20:20:19 54° SSW 20:21:13 37° SSE
STARLINK-1247 3.2 20:17:42 10° WNW 20:20:46 53° SSW 20:21:39 37° SSE
STARLINK-1227 3.2 20:18:06 10° WNW 20:21:12 53° SSW 20:22:06 37° SSE
Cosmos 962 Rocket 4.4 20:15:04 10° N 20:21:17 88° E 20:27:13 11° S
Cosmos 2154 Rocket 4.5 20:15:14 10° NNW 20:21:31 63° W 20:27:44 10° S
STARLINK-1218 3.2 20:18:36 10° WNW 20:21:40 52° SSW 20:22:31 38° SSE
Nadezhda 1 Rocket 4.3 20:15:34 10° SSW 20:21:57 74° WNW 20:28:19 10° N
STARLINK-1226 3.2 20:19:03 10° WNW 20:22:07 52° SSW 20:22:58 38° SSE
STARLINK-1254 3.2 20:19:28 10° WNW 20:22:33 52° SSW 20:23:24 38° SSE
STARLINK-1215 3.2 20:19:58 10° WNW 20:23:01 51° SSW 20:23:49 38° SSE
STARLINK-1231 3.2 20:20:24 10° WNW 20:23:28 51° SSW 20:24:15 38° SSE
STARLINK-1232 3.3 20:21:19 10° WNW 20:24:22 50° SSW 20:25:08 39° SSE
SL-8 Rocket 4.0 20:18:14 10° N 20:24:33 67° ENE 20:29:12 19° SSE
STARLINK-1217 3.3 20:21:46 10° WNW 20:24:49 50° SSW 20:25:33 39° SSE
STARLINK-1241 3.5 20:21:00 10° WNW 20:25:10 89° SSW 20:27:04 31° ESE
STARLINK-1208 3.3 20:22:11 10° WNW 20:25:14 50° SSW 20:26:00 39° SSE
BREEZE-M DEB (TANK) 4.4 20:20:32 10° W 20:25:22 31° SW 20:26:31 23° S
STARLINK-1229 3.3 20:22:40 10° WNW 20:25:42 49° SSW 20:26:25 39° SSE
STARLINK-1271 3.3 20:23:06 10° WNW 20:26:09 49° SSW 20:26:52 39° SSE
Cosmos 2228 4.2 20:22:08 10° SSW 20:26:16 44° WNW 20:30:28 10° N
Cosmos 2181 Rocket 4.1 20:20:34 11° SSE 20:26:25 53° E 20:32:24 10° NNE
Cosmos 407 Rocket 3.5 20:21:21 10° SSW 20:26:31 81° WNW 20:31:40 10° NNE
STARLINK-1270 3.3 20:23:34 10° WNW 20:26:37 49° SSW 20:27:18 40° SSE
STARLINK-1154 3.3 20:24:01 10° WNW 20:27:03 48° SSW 20:27:43 40° SSE
SL-24 R/B - RUBIN 2 4.2 20:21:32 10° SSW 20:27:14 78° SE 20:33:40 10° NE
Cosmos 676 Rocket 4.0 20:22:29 10° S 20:27:39 58° ESE 20:32:49 10° NNE
STARLINK-1197 3.3 20:24:56 10° WNW 20:27:58 48° SSW 20:28:36 40° SSE
Cosmos 1656 4.3 20:22:37 10° NNW 20:28:06 44° NE 20:30:57 25° ESE
STARLINK-1189 3.4 20:25:23 10° WNW 20:28:24 47° SSW 20:29:01 40° S
STARLINK-1198 3.4 20:25:50 10° WNW 20:28:51 47° SSW 20:29:27 40° S
Cosmos 1461 4.1 20:24:37 10° NW 20:28:54 42° WSW 20:32:00 18° S
Cosmos 1455 4.3 20:30:11 14° ENE 20:30:11 14° ENE 20:31:23 10° NE
STARLINK-1188 3.4 20:26:17 10° WNW 20:29:18 47° SSW 20:29:53 40° S
ERS-1 Rocket 3.8 20:27:20 25° ESE 20:29:21 35° ENE 20:33:52 10° N
Cosmos 1980 Rocket 3.8 20:25:03 10° NNW 20:29:22 22° NE 20:32:34 14° ENE
STARLINK-1235 3.7 20:26:57 10° W 20:29:56 39° SSW 20:30:32 35° S
STARLINK-1239 3.5 20:25:57 10° WNW 20:30:06 86° SSW 20:31:48 35° ESE
STARLINK-1187 3.5 20:27:23 10° WNW 20:30:24 42° SSW 20:30:59 37° S
Cosmos 1812 Rocket 4.1 20:29:46 32° SE 20:30:54 38° E 20:34:55 10° NNE
SPOT 3 Rocket 4.4 20:25:53 10° S 20:30:55 48° W 20:35:59 10° NNW
Cosmos 1892 3.4 20:27:34 10° N 20:31:15 38° ENE 20:32:00 34° ESE
STARLINK-1199 3.4 20:28:12 10° WNW 20:31:15 46° SSW 20:31:48 40° S
STARLINK-1191 3.4 20:28:41 10° WNW 20:31:44 45° SSW 20:32:15 40° S
STARLINK-29 3.9 20:29:10 10° SW 20:31:20 31° S 20:31:20 31° S
STARLINK-1210 3.4 20:29:07 10° WNW 20:32:09 45° SSW 20:32:40 40° S
STARLINK-1221 3.4 20:29:36 10° WNW 20:32:37 45° SSW 20:33:07 41° S
STARLINK-1219 3.4 20:30:01 10° WNW 20:33:03 45° SSW 20:33:32 40° S
STARLINK-1222 3.4 20:30:29 10° WNW 20:33:31 44° SSW 20:33:58 41° S
STARLINK-1211 3.4 20:30:56 10° WNW 20:33:58 44° SSW 20:34:24 41° S
STARLINK-60 2.9 20:31:01 10° WSW 20:34:17 66° SSE 20:34:54 51° E
STARLINK-1214 3.4 20:31:23 10° WNW 20:34:24 44° SSW 20:34:50 40° S
STARLINK-1245 3.4 20:31:53 10° WNW 20:34:52 43° SSW 20:35:16 40° S
STARLINK-1240 3.5 20:30:57 10° WNW 20:35:06 83° SSW 20:36:36 38° ESE
SPOT 5 3.7 20:34:13 26° E 20:35:14 29° ENE 20:38:58 10° N
STARLINK-1238 3.5 20:32:18 10° WNW 20:35:19 43° SSW 20:35:43 40° S
STARLINK-1205 3.5 20:33:14 10° WNW 20:36:14 42° SSW 20:36:34 40° S
Cosmos 220 Rocket 3.9 20:32:11 10° NNW 20:36:31 74° ENE 20:38:14 36° SE
STARLINK-1204 3.5 20:33:41 10° WNW 20:36:40 42° SSW 20:36:59 40° S
GRACE-FO 2 4.5 20:35:27 33° SSE 20:37:00 74° E 20:40:43 10° N
Cosmos 2366 rocket 4.0 20:31:19 10° N 20:37:26 66° ENE 20:41:05 25° SSE
Aureole 1 Rocket 4.3 20:30:23 10° SSW 20:37:41 71° WNW 20:43:18 10° NNE
STARLINK-1216 3.5 20:35:56 10° WNW 20:40:05 79° SSW 20:41:24 42° ESE
Cosmos 1825 3.7 20:38:11 10° NNE 20:41:04 22° ENE 20:41:04 22° ENE
ATLAS 5 CENTAUR R/B 1.5 20:39:07 10° SW 20:43:21 86° SE 20:48:11 10° NE
Abrixas rocket 3.4 20:40:52 10° W 20:43:05 27° SW 20:43:05 27° SW
Terra 2.9 20:42:28 26° E 20:43:35 29° ENE 20:47:40 10° N
Cosmos 1959 Rocket 4.5 20:37:33 10° N 20:43:55 75° ENE 20:47:43 25° SSE
STARLINK-1237 3.5 20:40:54 10° WNW 20:45:02 76° SSW 20:46:09 47° SE
Cosmos 2151 3.7 20:45:41 10° N 20:49:33 34° ENE 20:49:51 34° E
Cosmos 2058 2.8 20:45:33 10° N 20:49:41 75° E 20:50:47 47° SSE
STARLINK-1202 3.6 20:45:53 10° WNW 20:50:01 72° SSW 20:50:57 51° SE
Cosmos 192 4.3 20:45:12 10° NNW 20:50:11 86° ENE 20:52:09 37° SSE
Cosmos 1954 Rocket 3.9 20:45:27 10° SSW 20:50:42 83° ESE 20:55:57 10° NNE
RESURS DK-1 3.0 20:48:34 10° NNW 20:52:32 41° NE 20:53:17 37° ENE
SPOT 1/Viking Rocket 3.6 20:52:37 37° SE 20:54:41 69° ENE 20:59:54 10° N
FALCON 9 DEB 4.3 20:51:33 10° SW 20:53:39 31° SSW 20:53:39 31° SSW
Cosmos 1300 3.0 20:52:16 18° SSW 20:55:00 64° WNW 20:58:50 10° N
Cosmos 1741 Rocket 4.4 20:54:59 39° ESE 20:55:38 40° ESE 21:00:36 10° NE
Cosmos 1076 Rocket 3.4 20:53:26 10° N 20:57:45 89° W 20:59:02 45° S
SL-4 R/B 1.4 20:54:43 10° WSW 20:58:08 89° S 20:58:16 82° E
STARLINK-1201 4.2 20:55:17 10° W 20:58:00 32° SW 20:58:00 32° SW
In-Cosmos 22 Rocket 4.3 20:53:19 10° NNW 20:59:11 82° W 21:02:23 28° S
Cosmos 2208 Rocket 4.5 20:54:21 10° NNW 20:59:23 46° ENE 21:00:47 37° E
STARLINK-1246 3.6 20:55:52 10° WNW 20:59:59 65° SSW 21:00:32 58° SSE
MOS 1 Rocket 4.3 20:55:09 10° N 21:00:24 57° WNW 21:05:43 10° SSW
Cosmos 1340 Rocket 4.5 20:56:49 10° SW 21:00:32 34° WNW 21:04:15 10° N
STARLINK-1203 3.7 20:56:43 10° WNW 21:00:53 62° SSW 21:01:25 55° SSE
Cosmos 2082 Rocket 4.3 21:03:59 11° ENE 21:03:59 11° ENE 21:04:21 10° ENE
STARLINK-1224 3.6 21:00:50 10° WNW 21:04:56 62° SSW 21:05:18 59° S
Cosmos 1763 Rocket 3.4 21:03:48 10° NNW 21:09:03 86° ENE 21:10:29 49° SSE
STARLINK-1225 3.7 21:05:50 10° WNW 21:09:55 59° SSW 21:10:06 58° SSW
SAR-Lupe-2 4.0 21:06:24 10° N 21:09:58 62° WNW 21:11:07 38° SW
Cosmos 1833 Rocket 4.0 21:13:43 23° ENE 21:13:43 23° ENE 21:16:36 10° NE
Cosmos 489 Rocket 4.4 21:06:21 10° NNW 21:12:35 72° ENE 21:14:41 43° SE
STARLINK-1230 3.8 21:10:50 10° WNW 21:14:54 55° SSW 21:14:54 55° SSW
BREEZE M DEB (TANK) 3.6 21:12:50 10° SW 21:16:47 56° SSE 21:29:28 10° ENE
Cosmos 1814 Rocket 4.3 21:13:05 10° NNW 21:18:23 56° ENE 21:19:27 48° ESE
Cosmos 540 Rocket 3.6 21:13:20 10° NNW 21:18:27 56° ENE 21:19:20 49° E
Cosmos 1821 Rocket 4.2 21:12:28 10° N 21:18:47 58° ENE 21:20:35 44° SE
Cosmos 1174 4.4 21:15:27 10° NW 21:19:28 57° SW 21:20:14 50° SSW
STARLINK-1243 4.0 21:15:49 10° WNW 21:19:39 52° SW 21:19:39 52° SW
Cosmos-2242 3.4 21:21:21 47° ENE 21:21:21 47° ENE 21:24:59 10° NNE
COSMOS 2406 3.4 21:20:59 48° ESE 21:21:07 49° ESE 21:26:37 10° NE
SL-08 R/B 4.4 21:16:31 10° N 21:22:41 88° W 21:25:05 40° S
Meteor 2-10 Rocket 3.6 21:23:20 54° ESE 21:23:43 55° E 21:29:01 10° NNE
Iridium 4 Rocket 3.4 21:19:40 10° N 21:23:50 59° W 21:24:45 46° SW
STARLINK-1236 4.1 21:20:47 10° WNW 21:24:26 47° SW 21:24:26 47° SW
USA 234 3.2 21:19:41 10° ENE 21:26:11 62° SE 21:32:39 10° SW
USA 32 3.9 21:24:55 10° N 21:30:12 88° E 21:31:15 59° S
Cosmos 1408 3.2 21:33:35 10° NNW 21:36:38 56° NW 21:36:38 56° NW
CZ-4C R/B 3.1 21:32:11 10° NW 21:38:59 64° NE 21:41:59 39° ESE
Cosmos 2369 3.6 21:33:31 10° NNW 21:39:13 77° ENE 21:40:06 63° ESE
CZ-2C R/B 4.3 21:36:10 10° N 21:40:40 31° WNW 21:45:10 10° WSW
Cosmos 1850 Rocket 3.9 21:39:35 54° SSW 21:40:48 90° WNW 21:46:01 10° NNE
CARTOSAT-1 3.7 21:43:22 65° WSW 21:43:27 65° WSW 21:47:47 10° NNW
ASTEX 1 3.7 21:44:36 51° ENE 21:44:36 51° ENE 21:49:13 10° N
Cosmos 1697 Rocket 2.5 21:39:17 10° NNW 21:44:59 85° ENE 21:45:47 68° SE
Cosmos 1356 Rocket 3.6 21:46:43 70° N 21:46:43 70° N 21:50:31 10° NNE
Cosmos 841 Rocket 3.4 21:41:04 10° NNW 21:46:23 84° WSW 21:46:53 73° S
Resurs 01 Rocket 4.2 21:46:45 10° WSW 21:49:12 14° W 21:51:39 10° NW
Mayak 0.5 21:45:55 10° NNE 21:47:47 23° NE 21:47:47 23° NE
Okean 3 Rocket 3.7 21:45:46 10° NNW 21:50:04 69° W 21:50:04 69° W
ATLAS CENTAUR R/B 2.1 21:50:01 10° NW 21:52:56 46° NNW 21:52:56 46° NNW
BREEZE M DEB (TANK) 4.5 21:49:41 10° WSW 21:52:39 27° WSW 21:52:39 27° WSW
Cosmos 1766 Rocket 3.7 21:50:46 10° NNW 21:54:58 71° WNW 21:54:58 71° WNW
Cosmos 1570 Rocket 4.4 21:56:39 10° NNW 22:01:53 54° WSW 22:02:21 53° SW
SL-16 R/B 3.5 21:57:59 10° NNW 22:02:58 30° NE 22:04:14 27° ENE
Cosmos 1455 3.4 22:05:04 41° NW 22:05:04 41° NW 22:08:00 10° N
Cosmos 2360 Rocket 4.2 22:01:59 10° NNW 22:06:00 19° NNE 22:08:30 15° ENE
ERS-1 Rocket 3.9 22:07:19 37° WSW 22:08:06 39° W 22:12:49 10° NNW
Meteor 2-3 Rocket 3.6 22:05:00 10° NNW 22:10:47 86° ENE 22:11:01 83° SE
Cosmos 2322 Rocket 3.5 22:06:27 10° NNW 22:11:22 29° NE 22:12:34 27° ENE
Cosmos 1656 4.5 22:06:27 10° NW 22:11:44 40° WSW 22:12:23 38° SW
SPOT 5 3.7 22:13:27 36° W 22:13:27 36° W 22:17:17 10° NNW
Cosmos 1980 Rocket 2.1 22:08:37 10° NNW 22:14:16 81° ENE 22:14:19 81° ENE
Cosmos 1825 3.9 22:13:19 10° NNW 22:15:53 31° WNW 22:15:53 31° WNW
Terra 2.6 22:21:20 45° W 22:21:20 45° W 22:25:45 10° NNW
ATLAS 5 CENTAUR R/B 3.7 22:24:41 10° W 22:28:36 28° NNW 22:33:03 10° NE
RESURS DK-1 4.3 22:26:53 10° NW 22:29:11 23° W 22:29:11 23° W
Cosmos 2360 4.5 22:29:32 10° NW 22:34:51 59° W 22:34:51 59° W
Nadezhda 3 Rocket 4.5 22:35:02 44° WSW 22:36:43 56° WNW 22:42:53 10° N
Thor Agena Rocket 3.9 22:35:37 10° NNE 22:39:38 57° NNE 22:39:38 57° NNE
Cosmos 2278 4.1 22:35:47 10° NW 22:40:53 55° W 22:40:53 55° W
Cosmos 2082 Rocket 2.6 22:45:47 56° NE 22:45:47 56° NE 22:50:15 10° NNE
Cosmos 2344 4.3 22:45:30 10° NW 22:54:51 79° SW 22:58:33 51° SSE
Cosmos 1833 Rocket 2.9 22:55:21 63° WNW 22:55:30 63° NW 23:01:08 10° NNE
Cosmos 2221 4.0 22:58:41 36° N 22:58:41 36° N 23:01:19 10° N
Cosmos 1727 Rocket 4.2 22:58:39 62° ENE 22:58:39 62° ENE 23:04:23 10° NNE
Cosmos 1153 Rocket 4.4 22:53:48 10° N 23:00:00 83° NE 23:00:00 83° NE
Meteor 1-27 4.5 23:03:27 67° WNW 23:03:27 67° WNW 23:09:07 10° N
Cosmos 2219 Rocket 4.3 23:00:28 10° NNW 23:04:30 20° NE 23:07:20 14° ENE
COSMOS 2406 4.4 23:02:57 25° W 23:05:36 38° NW 23:10:57 10° NNE
Cosmos 1802 Rocket 4.4 23:02:09 10° N 23:07:59 50° ENE 23:07:59 50° ENE
USA 234 3.5 23:02:49 10° ENE 23:09:18 67° NNW 23:15:47 10° W
Cosmos 2100 Rocket 4.1 23:07:05 10° N 23:12:57 68° NE 23:12:57 68° NE
Cosmos 2173 Rocket 4.0 23:16:13 10° N 23:21:50 70° NE 23:21:50 70° NE
Mayak 0.8 23:21:45 10° N 23:24:21 24° NW 23:24:21 24° NW
CZ-4C R/B 3.4 23:20:49 10° NW 23:27:10 46° WSW 23:27:10 46° WSW
ALOS 2 4.2 23:32:40 32° NNW 23:32:40 32° NNW 23:35:06 10° NNW
Cosmos 968 Rocket 4.2 23:46:26 50° N 23:46:26 50° N 23:50:30 10° NNE
MOS 1-B Rocket 4.2 23:40:46 10° NNE 23:46:30 68° ENE 23:46:30 68° ENE
SL-16 R/B 2.9 23:41:53 10° NW 23:46:05 48° NW 23:46:05 48° NW
Cosmos 2360 Rocket 2.6 23:45:28 10° NNW 23:50:16 58° N 23:50:16 58° N
